Hopkins, SC

5:22 PM EST on January 20, 2017 (GMT -0500)
McEntire Angs

Weather History for KMMT - March, 2013

Change the Weather History Date:

Thursday, March 7, 2013

  Actual Average Record
Temperature  
Mean Temperature 42 °F -  
Max Temperature 57 °F 61 °F 80 °F (2009)
Min Temperature 27 °F 41 °F 24 °F (2015)
Degree Days  
Heating Degree Days 23    
Moisture  
Dew Point 29 °F    
Average Humidity 61    
Maximum Humidity 87    
Minimum Humidity 32    
Precipitation  
Precipitation 0.00 in - - ()
Sea Level Pressure  
Sea Level Pressure 30.19 in    
Wind  
Wind Speed 4 mph (NW)    
Max Wind Speed 12 mph    
Max Gust Speed -    
Visibility 6 miles    
Events      
Averages and records for this station are not official NWS values.
T = Trace of Precipitation, MM = Missing Value Source: NWS Daily Summary

Daily Weather History Graph

Daily Weather History Graph

Search for Another Location

Airport or City:

Trip Planner

Search our weather history database for the weather conditions in past years. The results will help you decide how hot, cold, wet, or windy it might be!

Date:

Astronomy

Mar. 07, 2013 Rise Set
Actual Time 6:43 AM EST 6:24 PM EST
Civil Twilight 6:19 AM EST 6:49 PM EST
Nautical Twilight 5:50 AM EST 7:18 PM EST
Astronomical Twilight 5:21 AM EST 7:47 PM EST
Moon 3:32 AM EST (3/7) 2:20 PM EST (3/7)
Length of Visible Light 12h 30m
Length of Day
11h 40m
Waning Crescent, 20% of the Moon is Illuminated
Mar 7
Waning Crescent
Mar 11
New
Mar 19
First Quarter
Mar 27
Full
Apr 3
Last Quarter

Hourly Weather History & Observations

Time (EST) Temp. Windchill Dew Point Humidity Pressure Visibility Wind Dir Wind Speed Gust Speed Precip Events Conditions
12:58 AM 32.5 °F 27.1 °F 24.1 °F 71% 30.14 in 10.0 mi NNW 5.8 mph - N/A   Clear
1:58 AM 30.2 °F 24.3 °F 23.4 °F 76% 30.17 in 10.0 mi NW 5.8 mph - N/A   Clear
2:58 AM 32.5 °F 27.1 °F 23.9 °F 70% 30.17 in 10.0 mi West 5.8 mph - N/A   Clear
3:58 AM 29.3 °F - 23.7 °F 80% 30.17 in 10.0 mi Calm Calm - N/A   Clear
4:58 AM 27.0 °F 21.6 °F 23.5 °F 87% 30.19 in 10.0 mi NW 4.6 mph - N/A   Clear
5:58 AM 28.4 °F 22.2 °F 23.5 °F 82% 30.21 in 10.0 mi WNW 5.8 mph - N/A   Clear
6:58 AM 29.7 °F 26.1 °F 23.2 °F 77% 30.23 in 10.0 mi WNW 3.5 mph - N/A   Clear
7:58 AM 35.2 °F - 27.0 °F 72% 30.26 in 10.0 mi West 2.3 mph - N/A   Partly Cloudy
8:58 AM 43.2 °F 38.4 °F 26.1 °F 51% 30.25 in 10.0 mi North 8.1 mph - N/A   Partly Cloudy
9:58 AM 46.2 °F 43.3 °F 25.5 °F 44% 30.25 in 10.0 mi Variable 5.8 mph - N/A   Scattered Clouds
10:58 AM 49.3 °F - 25.9 °F 40% 30.25 in 10.0 mi NW 4.6 mph - N/A   Scattered Clouds
11:58 AM 50.9 °F - 26.2 °F 38% 30.22 in 10.0 mi WNW 9.2 mph - N/A   Partly Cloudy
12:58 PM 54.1 °F - 26.4 °F 34% 30.19 in 10.0 mi Variable 4.6 mph - N/A   Partly Cloudy
1:58 PM 55.9 °F - 26.8 °F 33% 30.17 in 10.0 mi West 11.5 mph - N/A   Partly Cloudy
2:58 PM 57.0 °F - 27.0 °F 32% 30.15 in 10.0 mi West 10.4 mph - N/A   Partly Cloudy
3:58 PM 57.4 °F - 27.3 °F 32% 30.14 in 10.0 mi WNW 9.2 mph - N/A   Partly Cloudy
4:58 PM 57.4 °F - 27.9 °F 32% 30.14 in 10.0 mi WNW 6.9 mph - N/A   Partly Cloudy
5:58 PM 55.8 °F - 28.4 °F 35% 30.17 in 10.0 mi West 5.8 mph - N/A   Clear
6:58 PM 50.7 °F - 28.8 °F 43% 30.19 in 10.0 mi Calm Calm - N/A   Clear
7:11 PM 50.0 °F - 32.0 °F 50% 30.18 in 1.8 mi NNE 1.2 mph - N/A   Smoke
7:24 PM 48.2 °F - 32.0 °F 54% 30.17 in 1.0 mi North 2.3 mph - N/A   Smoke
7:34 PM 46.4 °F - 32.0 °F 57% 30.18 in 0.5 mi NNW 1.2 mph - N/A   Smoke
7:46 PM 44.6 °F - 32.0 °F 61% 30.18 in 1.5 mi Calm Calm - N/A   Smoke
7:51 PM 44.6 °F - 32.0 °F 61% 30.18 in 2.0 mi Calm Calm - N/A   Smoke
7:56 PM 44.6 °F - 32.0 °F 61% 30.18 in 3.0 mi Calm Calm - N/A   Smoke
7:58 PM 45.0 °F - 31.3 °F 59% 30.19 in 5.0 mi Calm Calm - N/A   Smoke
8:13 PM 42.8 °F - 32.0 °F 66% 30.18 in 2.0 mi NNE 1.2 mph - N/A   Smoke
8:18 PM 42.8 °F - 32.0 °F 66% 30.18 in 1.0 mi NE 1.2 mph - N/A   Smoke
8:23 PM 41.0 °F - 32.0 °F 70% 30.19 in 0.8 mi Calm Calm - N/A   Smoke
8:28 PM 41.0 °F - 32.0 °F 70% 30.19 in 1.0 mi Calm Calm - N/A   Smoke
8:58 PM 41.0 °F - 32.0 °F 70% 30.19 in 1.5 mi Calm Calm - N/A   Smoke
9:03 PM 41.0 °F - 32.0 °F 70% 30.19 in 1.8 mi Calm Calm - N/A   Smoke
9:13 PM 39.2 °F - 32.0 °F 75% 30.19 in 7.0 mi NNW 1.2 mph - N/A   Smoke
9:36 PM 39.2 °F - 32.0 °F 75% 30.20 in 1.0 mi Calm Calm - N/A   Smoke
9:41 PM 39.2 °F - 32.0 °F 75% 30.20 in 0.5 mi Calm Calm - N/A   Smoke
9:58 PM 37.9 °F - 31.6 °F 78% 30.22 in 0.5 mi Calm Calm - N/A   Smoke
10:01 PM 37.4 °F - 32.0 °F 81% 30.21 in 0.8 mi Calm Calm - N/A   Smoke
10:03 PM 37.4 °F - 32.0 °F 81% 30.21 in 2.0 mi Calm Calm - N/A   Smoke
10:08 PM 37.4 °F - 32.0 °F 81% 30.21 in 7.0 mi Calm Calm - N/A   Smoke
10:58 PM 43.9 °F 39.9 °F 28.2 °F 54% 30.24 in 10.0 mi NNE 6.9 mph - N/A   Clear
11:58 PM 42.4 °F 38.8 °F 26.6 °F 54% 30.24 in 10.0 mi NNE 5.8 mph - N/A   Clear